Tracking 20623 objects as of 3-Apr-2020
HD Live streaming from Space Station
objects crossing your sky now

COSMOS 256

Track COSMOS 256 now!
10-day predictions
COSMOS 256 is classified as:


NORAD ID: 3576
Int'l Code: 1968-106A
Perigee: 1,178.5 km
Apogee: 1,229.7 km
Inclination: 74.0 °
Period: 109.4 minutes
Semi major axis: 7575 km
RCS: 3.2431 m2 (large)
Launch date: November 30, 1968
Source: Commonwealth of Independent States (former USSR) (CIS)
Launch site: PLESETSK MISSILE AND SPACE COMPLEX (PKMTR)
aabbcc
Your satellite tracking list
Your tracking list is empty




NASA's NSSDC Master Catalog

Two Line Element Set (TLE):
1  3576U 68106A   20093.84593731 -.00000062 +00000-0 -11079-3 0  9997
2  3576 074.0477 248.0252 0033821 345.6080 119.7597 13.16807907467365
Source of the keplerian elements: AFSPC